Weather History for Wausau, WI

Change the Weather History Date:

Sunday, January 1, 2012

  Actual Average Record
Temperature  
Mean Temperature 25 °F 15 °F  
Max Temperature 32 °F 23 °F 46 °F (1910)
Min Temperature 18 °F 7 °F -32 °F (1947)
Degree Days  
Heating Degree Days 40 50  
Month to date heating degree days 40 50  
Since 1 July heating degree days 2860 3336  
Cooling Degree Days 0 0  
Month to date cooling degree days 0 0  
Year to date cooling degree days 0 0  
Moisture  
Dew Point 22 °F    
Average Humidity 84    
Maximum Humidity 100    
Minimum Humidity 67    
Precipitation  
Precipitation 0.20 in 0.04 in 0.44 in (1918)
Month to date precipitation 0.20 0.04  
Year to date precipitation 0.20 0.04  
Snow  
Snow 2.90 in 0.40 in 5.40 in (1918)
Month to date snowfall 2.9 0.4  
Since 1 July snowfall 15.2 22.6  
Snow Depth 5.00 in    
Sea Level Pressure  
Sea Level Pressure 29.76 in    
Wind  
Wind Speed 16 mph (WNW)    
Max Wind Speed 28 mph    
Max Gust Speed 39 mph    
Visibility 4 miles    
Events Snow    
T = Trace of Precipitation, MM = Missing Value Source: NWS Daily Summary

Daily Weather History Graph

Daily Weather History Graph

Search for Another Location

Airport:

Trip Planner

Search our weather history database for the weather conditions in past years. The results will help you decide how hot, cold, wet, or windy it might be!

Date:

Astronomy

Jan. 01, 2012 Rise Set
Actual Time 7:36 AM CST 4:27 PM CST
Civil Twilight 7:02 AM CST 5:01 PM CST
Nautical Twilight 6:25 AM CST 5:38 PM CST
Astronomical Twilight 5:50 AM CST 6:13 PM CST
Moon 11:25 AM CST (1/1) 12:21 AM CST (1/1)
Length of Visible Light 9h 58m
Length of Day
8h 50m
First Quarter, 55% of the Moon is Illuminated
Jan 1
First Quarter
Jan 9
Full
Jan 16
Last Quarter
Jan 23
New
Jan 30
First Quarter

Hourly Weather History & Observations

Time (CST) Temp. Windchill Dew Point Humidity Pressure Visibility Wind Dir Wind Speed Gust Speed Precip Events Conditions
12:11 AM 30.2 °F 25.4 °F 30.2 °F 100% 29.60 in 1.2 mi ESE 4.6 mph - 0.03 in Snow Light Snow
12:24 AM 30.2 °F 25.4 °F 30.2 °F 100% 29.59 in 2.0 mi ESE 4.6 mph - 0.04 in Snow Light Snow
12:54 AM 30.9 °F - 30.0 °F 96% 29.63 in 0.8 mi Calm Calm - 0.07 in Snow Light Snow
2:26 AM 32.0 °F 27.5 °F 30.2 °F 93% 29.58 in 2.0 mi NW 4.6 mph - 0.02 in Snow Light Snow
2:34 AM 32.0 °F 27.5 °F 30.2 °F 93% 29.58 in 1.2 mi NW 4.6 mph - 0.02 in Snow Light Snow
2:54 AM 30.9 °F 25.2 °F 28.9 °F 92% 29.63 in 1.5 mi NNW 5.8 mph - 0.03 in Snow Light Snow
3:08 AM 30.2 °F 23.4 °F 28.4 °F 93% 29.58 in 1.5 mi NNW 6.9 mph - 0.01 in Snow Light Snow
3:43 AM 30.2 °F 22.6 °F 28.4 °F 93% 29.58 in 1.5 mi NW 8.1 mph - 0.02 in Snow Light Snow
3:54 AM 30.9 °F 24.3 °F 28.9 °F 92% 29.63 in 2.0 mi NW 6.9 mph - 0.02 in Snow Light Snow
4:12 AM 30.2 °F 22.6 °F 28.4 °F 93% 29.58 in 1.2 mi NW 8.1 mph - 0.01 in Snow Light Snow
4:32 AM 30.2 °F 21.9 °F 28.4 °F 93% 29.59 in 3.0 mi NW 9.2 mph - 0.01 in Snow Light Snow
4:42 AM 32.0 °F 23.6 °F 28.4 °F 87% 29.59 in 4.0 mi NW 10.4 mph - 0.01 in Snow Light Snow
4:49 AM 32.0 °F 23.0 °F 28.4 °F 87% 29.59 in 4.0 mi NW 11.5 mph - 0.01 in Snow Light Snow
4:54 AM 32.0 °F 23.0 °F 28.0 °F 85% 29.65 in 4.0 mi NW 11.5 mph - 0.01 in Snow Light Snow
5:54 AM 32.0 °F 23.0 °F 28.0 °F 85% 29.67 in 4.0 mi NW 11.5 mph - 0.00 in Snow Light Snow
6:02 AM 32.0 °F 22.5 °F 28.4 °F 87% 29.62 in 6.0 mi NW 12.7 mph 20.7 mph 0.00 in Snow Light Snow
6:54 AM 30.9 °F 18.1 °F 27.0 °F 85% 29.68 in 5.0 mi NW 21.9 mph 27.6 mph 0.00 in   Overcast
7:13 AM 30.2 °F 17.4 °F 26.6 °F 86% 29.64 in 7.0 mi WNW 20.7 mph 28.8 mph 0.00 in   Overcast
7:30 AM 30.2 °F 17.8 °F 26.6 °F 86% 29.64 in 9.0 mi WNW 19.6 mph 28.8 mph 0.00 in   Overcast
7:54 AM 28.9 °F 17.3 °F 25.0 °F 85% 29.71 in 3.0 mi WNW 16.1 mph 32.2 mph 0.00 in   Overcast
8:16 AM 28.4 °F 14.1 °F 24.8 °F 86% 29.67 in 2.0 mi WNW 24.2 mph 31.1 mph 0.00 in   Overcast
8:31 AM 28.4 °F 14.1 °F 21.2 °F 74% 29.68 in 2.5 mi WNW 24.2 mph 34.5 mph 0.00 in   Overcast
8:54 AM 27.0 °F 12.2 °F 21.0 °F 78% 29.74 in 3.0 mi WNW 24.2 mph 32.2 mph 0.00 in   Overcast
9:30 AM 26.6 °F 12.0 °F 19.4 °F 74% 29.70 in 2.5 mi WNW 23.0 mph 35.7 mph 0.00 in   Overcast
9:54 AM 27.0 °F 16.7 °F 19.9 °F 75% 29.76 in 10.0 mi NW 11.5 mph 20.7 mph 0.00 in   Overcast
10:54 AM 27.0 °F 15.2 °F 19.9 °F 75% 29.76 in 10.0 mi WNW 15.0 mph - 0.00 in   Overcast
11:54 AM 28.0 °F 15.3 °F 19.0 °F 69% 29.76 in 6.0 mi NW 18.4 mph 31.1 mph 0.00 in Snow Light Snow
12:32 PM 28.4 °F 15.4 °F 19.4 °F 69% 29.70 in 4.0 mi WNW 19.6 mph 26.5 mph 0.00 in Snow Light Snow
12:54 PM 28.0 °F 14.9 °F 19.9 °F 72% 29.76 in 6.0 mi WNW 19.6 mph - 0.00 in Snow Light Snow
1:32 PM 26.6 °F 12.4 °F 21.2 °F 80% 29.71 in 2.0 mi WNW 21.9 mph 38.0 mph 0.00 in Snow Light Snow
1:47 PM 26.6 °F 13.1 °F 21.2 °F 80% 29.72 in 1.8 mi WNW 19.6 mph 29.9 mph 0.00 in Snow Light Snow
1:54 PM 27.0 °F 12.8 °F 21.0 °F 78% 29.78 in 2.0 mi WNW 21.9 mph 29.9 mph 0.00 in Snow Light Snow
2:19 PM 26.6 °F 12.4 °F 19.4 °F 74% 29.74 in 1.5 mi WNW 21.9 mph 31.1 mph 0.00 in Snow Light Snow
2:29 PM 26.6 °F 13.4 °F 19.4 °F 74% 29.74 in 1.0 mi WNW 18.4 mph 31.1 mph 0.00 in Snow Light Snow
2:42 PM 26.6 °F 12.4 °F 19.4 °F 74% 29.75 in 3.0 mi WNW 21.9 mph 28.8 mph 0.00 in Snow Light Snow
2:54 PM 27.0 °F 12.2 °F 19.9 °F 75% 29.82 in 2.0 mi WNW 24.2 mph 35.7 mph 0.00 in Snow Light Snow
3:02 PM 26.6 °F 11.7 °F 19.4 °F 74% 29.76 in 1.5 mi West 24.2 mph 35.7 mph 0.00 in Snow Light Snow
3:09 PM 26.6 °F 13.1 °F 19.4 °F 74% 29.77 in 3.0 mi West 19.6 mph 33.4 mph 0.00 in Snow Light Snow
3:39 PM 26.6 °F 11.7 °F 19.4 °F 74% 29.79 in 3.0 mi WNW 24.2 mph 31.1 mph 0.00 in Snow Light Snow
3:54 PM 26.1 °F 12.3 °F 19.9 °F 78% 29.86 in 4.0 mi WNW 19.6 mph 28.8 mph 0.00 in   Overcast
4:01 PM 26.6 °F 12.7 °F 19.4 °F 74% 29.81 in 8.0 mi WNW 20.7 mph 27.6 mph 0.00 in   Overcast
4:54 PM 25.0 °F 11.3 °F 19.9 °F 81% 29.91 in 4.0 mi WNW 18.4 mph 26.5 mph 0.00 in Snow Light Snow
5:22 PM 24.8 °F 10.0 °F 17.6 °F 74% 29.87 in 4.0 mi WNW 21.9 mph 29.9 mph 0.00 in Snow Light Snow
5:54 PM 25.0 °F 10.6 °F 16.0 °F 69% 29.94 in 5.0 mi WNW 20.7 mph 29.9 mph 0.00 in Snow Light Snow
6:03 PM 24.8 °F 10.3 °F 15.8 °F 69% 29.89 in 4.0 mi NW 20.7 mph 36.8 mph 0.00 in Snow Light Snow
6:12 PM 24.8 °F 11.5 °F 15.8 °F 69% 29.89 in 8.0 mi NW 17.3 mph 27.6 mph 0.00 in   Overcast
6:29 PM 24.8 °F 11.5 °F 15.8 °F 69% 29.90 in 9.0 mi NW 17.3 mph 32.2 mph 0.00 in   Overcast
6:54 PM 25.0 °F 11.7 °F 15.1 °F 66% 29.97 in 10.0 mi NW 17.3 mph 29.9 mph 0.00 in   Overcast
7:17 PM 24.8 °F 10.7 °F 15.8 °F 69% 29.92 in 9.0 mi WNW 19.6 mph 26.5 mph 0.00 in   Overcast
7:28 PM 24.8 °F 10.3 °F 15.8 °F 69% 29.93 in 8.0 mi WNW 20.7 mph 36.8 mph 0.00 in   Overcast
7:54 PM 23.0 °F 8.7 °F 14.0 °F 68% 30.00 in 7.0 mi WNW 18.4 mph 29.9 mph 0.00 in   Overcast
8:15 PM 21.2 °F 3.9 °F 14.0 °F 74% 29.94 in 4.0 mi WNW 26.5 mph 34.5 mph 0.00 in Snow Light Snow
8:54 PM 21.0 °F 5.7 °F 12.9 °F 71% 30.01 in 4.0 mi WNW 19.6 mph 31.1 mph 0.00 in Snow Light Snow
9:18 PM 19.4 °F 6.0 °F 12.2 °F 74% 29.95 in 7.0 mi WNW 13.8 mph 27.6 mph 0.00 in Snow Light Snow
9:54 PM 19.9 °F 6.2 °F 10.9 °F 68% 30.03 in 10.0 mi WNW 15.0 mph 27.6 mph 0.00 in   Overcast
11:54 PM 18.0 °F 1.3 °F 8.1 °F 65% 30.06 in 10.0 mi NW 20.7 mph 29.9 mph 0.00 in   Overcast